Home > Weather > Amadora > Past weeks

Flag for Portugal Past Weather in Amadora, Portugal — Yesterday and Last 2 Weeks

Now
82 °F

Sunny.


Feels Like: 82 °F
Forecast: 69 / 91 °F
Wind: 16 mph from Northwest

Location: Lisbon Portela Airport

Current Time: Jul 23, 2016 at 8:22:05 PM

Latest Report: Jul 23, 2016 at 7:30 PM


Visibility: 10 mi

Pressure: 29.98 "Hg

Humidity: 40%

Dew Point: 55 °F

Location of AmadoraLocation

Past Weather in Amadora — Graph

°F

Amadora Temperature Yesterday

Maximum temperature yesterday: 79 °F (at 3:30 PM)
Minimum temperature yesterday: 66 °F (at 12:00 AM)
Average temperature yesterday: 71 °F

High & Low Weather Summary for the Past Weeks

 TemperatureHumidityPressure
High97 °F (Jul 15, 3:00 PM)88% (Jul 10, 3:30 AM)30.12 "Hg (Jul 10, 3:30 AM)
Low59 °F (Jul 13, 6:00 AM)15% (Jul 15, 2:30 PM)29.89 "Hg (Jul 17, 7:30 PM)
Average74 °F55%30.03 "Hg
* Reported Jul 8 7:00 PM — Jul 23 7:00 PM, Amadora, Weather by CustomWeather, © 2016

Note: Actual official high and low records may vary slightly from our data, if they occured in-between our weather recording intervals... More about our weather records

Advertising

Amadora Weather History for the Previous 24 Hours

Scroll right to see more
 ConditionsComfort  
Time TempWeatherWind HumidityBarometerVisibility
7:00 PM
Sat, Jul 23
84 °FPassing clouds.16 mph37%29.98 "HgN/A
6:30 PM86 °FSunny.17 mph35%29.98 "Hg10 mi
6:00 PM88 °FSunny.17 mph33%29.98 "Hg10 mi
5:30 PM90 °FPassing clouds.16 mph33%29.98 "HgN/A
5:00 PM91 °FPassing clouds.17 mph30%29.98 "HgN/A
4:30 PM93 °FPassing clouds.14 mph28%29.98 "HgN/A
4:00 PM93 °FSunny.15 mph30%30.01 "Hg10 mi
3:30 PM95 °FSunny.15 mph18%30.01 "Hg10 mi
3:00 PM95 °FPassing clouds.14 mph22%30.01 "HgN/A
2:30 PM93 °FPassing clouds.15 mph23%30.01 "HgN/A
2:00 PM93 °FPassing clouds.14 mph23%30.04 "HgN/A
1:30 PM93 °FSunny.14 mph24%30.04 "Hg10 mi
1:00 PM90 °FPassing clouds.15 mph27%30.04 "HgN/A
12:30 PM88 °FPassing clouds.9 mph38%30.04 "HgN/A
12:00 PM86 °FPassing clouds.10 mph40%30.04 "HgN/A
11:30 AM84 °FPassing clouds.12 mph43%30.04 "HgN/A
11:00 AM82 °FPassing clouds.14 mph42%30.04 "HgN/A
10:30 AM82 °FSunny.15 mph40%30.04 "Hg10 mi
10:00 AM81 °FPassing clouds.10 mph48%30.04 "HgN/A
9:30 AM77 °FPassing clouds.8 mph54%30.04 "HgN/A
9:00 AM73 °FSunny.10 mph65%30.04 "Hg10 mi
8:30 AM70 °FSunny.10 mph73%30.04 "Hg10 mi
8:00 AM68 °FSunny.13 mph73%30.04 "Hg10 mi
7:30 AM68 °FSunny.12 mph73%30.04 "Hg10 mi
7:00 AM68 °FClear.10 mph73%30.04 "Hg10 mi
6:30 AM66 °FClear.12 mph78%30.04 "Hg10 mi
6:00 AM66 °FClear.10 mph78%30.04 "Hg10 mi
5:30 AM66 °FClear.13 mph78%30.01 "Hg10 mi
5:00 AM66 °FPassing clouds.9 mph78%30.04 "HgN/A
4:30 AM68 °FPassing clouds.12 mph73%30.04 "HgN/A
4:00 AM68 °FPassing clouds.13 mph73%30.01 "HgN/A
3:30 AM70 °FClear.18 mph69%30.01 "Hg10 mi
3:00 AM68 °FClear.17 mph73%30.04 "Hg10 mi
2:30 AM68 °FClear.16 mph73%30.04 "Hg10 mi
2:00 AM68 °FClear.17 mph73%30.04 "Hg10 mi
1:30 AM68 °FClear.16 mph73%30.04 "Hg10 mi
1:00 AM68 °FClear.14 mph78%30.04 "Hg10 mi
12:30 AM68 °FClear.14 mph78%30.07 "Hg10 mi
12:00 AM68 °FClear.17 mph78%30.07 "Hg10 mi
11:30 PM
Fri, Jul 22
68 °FPassing clouds.21 mph78%30.07 "HgN/A
11:00 PM68 °FClear.16 mph78%30.07 "Hg10 mi
10:30 PM68 °FPassing clouds.14 mph78%30.07 "HgN/A
10:00 PM68 °FPassing clouds.16 mph78%30.04 "HgN/A
9:30 PM68 °FPassing clouds.18 mph78%30.04 "HgN/A
9:00 PM68 °FPassing clouds.22 mph73%30.04 "HgN/A
8:30 PM70 °FPassing clouds.20 mph69%30.04 "HgN/A
8:00 PM72 °FPassing clouds.18 mph65%30.04 "HgN/A
Weather by CustomWeather, © 2016

See weather overviewHow to use our weather pages